22 mai 2022

Temps Code Temps Temp. Vue Des nuages Vent METAR/SPECI
08:50
V
16 °C 10 km+ - Var   Var 1 kt METAR EDDS 220650Z AUTO VRB01KT CAVOK 16/10 Q1017 NOSIG
08:20
V
15 °C 10 km+ - Var   Var 1 kt METAR EDDS 220620Z AUTO VRB01KT CAVOK 15/09 Q1017 NOSIG
07:50
V
14 °C 10 km+ - Var   Var 1 kt METAR EDDS 220550Z AUTO VRB01KT CAVOK 14/10 Q1017 NOSIG
07:20
V
11 °C 10 km+ - 040°   040° 3 kt METAR EDDS 220520Z AUTO 04003KT 010V080 CAVOK 11/09 Q1017 NOSIG
06:50
V
11 °C 10 km+ - 060°   060° 1 kt METAR EDDS 220450Z AUTO 06001KT CAVOK 11/08 Q1017 NOSIG
06:20
V
9 °C 10 km+ - Var   Var 1 kt METAR EDDS 220420Z AUTO VRB01KT CAVOK 09/08 Q1018 NOSIG
05:50
V
8 °C 10 km+ - 080°   080° 1 kt METAR EDDS 220350Z AUTO 08001KT CAVOK 08/08 Q1018
05:20
V
8 °C 10 km+ - Var   Var 2 kt METAR EDDS 220320Z AUTO VRB02KT CAVOK 08/07 Q1018
04:50
V
8 °C 10 km+ - 100°   100° 1 kt METAR EDDS 220250Z AUTO 10001KT CAVOK 08/08 Q1018
04:20
V
8 °C 10 km+ - Var   Var 1 kt METAR EDDS 220220Z AUTO VRB01KT CAVOK 08/07 Q1019
03:50
V
9 °C 10 km+ - 020°   020° 2 kt METAR EDDS 220150Z AUTO 02002KT CAVOK 09/08 Q1019
03:20
V
10 °C 10 km+ - Var   Var 2 kt METAR EDDS 220120Z AUTO VRB02KT CAVOK 10/08 Q1019
02:50
V
10 °C 10 km+ - 050°   050° 2 kt METAR EDDS 220050Z AUTO 05002KT CAVOK 10/08 Q1019
02:20
V
10 °C 10 km+ - Var   Var 2 kt METAR EDDS 220020Z AUTO VRB02KT CAVOK 10/08 Q1019
01:50
V
10 °C 10 km+ - Var   Var 1 kt METAR EDDS 212350Z AUTO VRB01KT CAVOK 10/08 Q1019
01:20
V
11 °C 10 km+ - Var   Var 1 kt METAR EDDS 212320Z AUTO VRB01KT CAVOK 11/09 Q1019
00:50
V
10 °C 10 km+ - Var   Var 1 kt METAR EDDS 212250Z AUTO VRB01KT CAVOK 10/07 Q1020
00:20
V
12 °C 10 km+ - Var   Var 2 kt METAR EDDS 212220Z AUTO VRB02KT CAVOK 12/08 Q1020

21 mai 2022

Temps Code Temps Temp. Vue Des nuages Vent METAR/SPECI
23:50
V
14 °C 10 km+ - 270°   270° 2 kt METAR EDDS 212150Z AUTO 27002KT CAVOK 14/08 Q1020
23:20
V
13 °C 10 km+ - 260°   260° 2 kt METAR EDDS 212120Z AUTO 26002KT CAVOK 13/08 Q1020
22:50
V
15 °C 10 km+ - 310°   310° 2 kt METAR EDDS 212050Z AUTO 31002KT CAVOK 15/08 Q1020
22:20
V
15 °C 10 km+ - Var   Var 1 kt METAR EDDS 212020Z AUTO VRB01KT CAVOK 15/08 Q1020
21:50
V
16 °C 10 km+ - Var   Var 1 kt METAR EDDS 211950Z AUTO VRB01KT CAVOK 16/08 Q1020 NOSIG
21:20
V
17 °C 10 km+ - 010°   010° 4 kt METAR EDDS 211920Z AUTO 01004KT 340V050 CAVOK 17/08 Q1020 NOSIG
20:50
V
18 °C 10 km+ - 030°   030° 5 kt METAR EDDS 211850Z AUTO 03005KT 010V070 CAVOK 18/08 Q1020 NOSIG
20:20
V
19 °C 10 km+ - 030°   030° 4 kt METAR EDDS 211820Z AUTO 03004KT CAVOK 19/08 Q1020 NOSIG
19:50
V
19 °C 10 km+ - 360°   360° 4 kt METAR EDDS 211750Z AUTO 36004KT 330V040 CAVOK 19/08 Q1020 NOSIG
19:20
V
20 °C 10 km+ - 330°   330° 8 kt METAR EDDS 211720Z AUTO 33008KT 310V010 CAVOK 20/08 Q1020 NOSIG
18:50
V
21 °C 10 km+ - 320°   320° 8 kt METAR EDDS 211650Z AUTO 32008KT 300V360 CAVOK 21/08 Q1020 NOSIG
18:20
V
21 °C 10 km+ - 340°   340° 10 kt METAR EDDS 211620Z AUTO 34010KT CAVOK 21/08 Q1020 NOSIG
17:50
V
21 °C 10 km+ - 310°   310° 9 kt METAR EDDS 211550Z AUTO 31009KT CAVOK 21/08 Q1021 NOSIG
17:20
V
21 °C 10 km+ - 330°   330° 10 kt METAR EDDS 211520Z AUTO 33010KT CAVOK 21/07 Q1021 NOSIG
16:50
V
22 °C 10 km+ - 310°   310° 9 kt METAR EDDS 211450Z AUTO 31009KT 270V350 CAVOK 22/07 Q1021 NOSIG
16:20
V
22 °C 10 km+ - 300°   300° 10 kt METAR EDDS 211420Z AUTO 30010KT 250V340 CAVOK 22/08 Q1021 NOSIG
15:50
V
22 °C 10 km+ - 300°   300° 10 kt METAR EDDS 211350Z AUTO 30010KT 260V350 CAVOK 22/08 Q1022 NOSIG
15:20
V
22 °C 10 km+ - 320°   320° 9 kt METAR EDDS 211320Z AUTO 32009KT 290V020 CAVOK 22/07 Q1022 NOSIG
14:50
V
22 °C 10 km+ - 340°   340° 8 kt METAR EDDS 211250Z AUTO 34008KT 290V030 CAVOK 22/08 Q1022 NOSIG
14:20
V
21 °C 10 km+ - 360°   360° 7 kt METAR EDDS 211220Z AUTO 36007KT 300V090 CAVOK 21/09 Q1022 NOSIG
13:50
V
21 °C 10 km+ - 360°   360° 7 kt METAR EDDS 211150Z AUTO 36007KT 320V100 CAVOK 21/09 Q1022 NOSIG
13:20
V
21 °C 10 km+ - 040°   040° 5 kt METAR EDDS 211120Z AUTO 04005KT 360V130 CAVOK 21/08 Q1022 NOSIG
12:50
V
20 °C 10 km+ - Var   Var 6 kt METAR EDDS 211050Z AUTO VRB06KT CAVOK 20/07 Q1023 NOSIG
12:20
V
20 °C 10 km+ - 320°   320° 7 kt METAR EDDS 211020Z AUTO 32007KT 250V360 CAVOK 20/08 Q1023 NOSIG
11:50
V
19 °C 10 km+ - 300°   300° 6 kt METAR EDDS 210950Z AUTO 30006KT 210V360 9999 FEW046 19/07 Q1023 NOSIG
11:20
V
19 °C 10 km+ - 260°   260° 7 kt METAR EDDS 210920Z AUTO 26007KT 170V290 9999 FEW045 19/07 Q1023
10:50
V
18 °C 10 km+ - 270°   270° 7 kt METAR EDDS 210850Z AUTO 27007KT 230V320 CAVOK 18/07 Q1024 NOSIG
10:20
V
18 °C 10 km+ - 290°   290° 8 kt METAR EDDS 210820Z AUTO 29008KT 250V360 CAVOK 18/07 Q1024 NOSIG
09:50
V
17 °C 10 km+ - 300°   300° 8 kt METAR EDDS 210750Z AUTO 30008KT 270V330 CAVOK 17/08 Q1023 NOSIG
09:20
V
17 °C 10 km+ - 290°   290° 10 kt METAR EDDS 210720Z AUTO 29010KT 260V320 CAVOK 17/08 Q1024
08:50
V
16 °C 10 km+ - 300°   300° 11 kt METAR EDDS 210650Z AUTO 30011KT 270V330 CAVOK 16/07 Q1024 NOSIG
08:20
V
15 °C 10 km+ - 280°   280° 12 kt METAR EDDS 210620Z AUTO 28012KT CAVOK 15/06 Q1024 NOSIG
07:50
V
15 °C 10 km+ - 280°   280° 10 kt METAR EDDS 210550Z AUTO 28010KT CAVOK 15/08 Q1024 NOSIG
07:20
V
14 °C 10 km+ - 280°   280° 12 kt METAR EDDS 210520Z AUTO 28012KT CAVOK 14/08 Q1023 NOSIG
06:50
V
14 °C 10 km+ - 290°   290° 9 kt METAR EDDS 210450Z AUTO 29009KT CAVOK 14/08 Q1023 NOSIG
06:20
V
13 °C 10 km+ - 280°   280° 9 kt METAR EDDS 210420Z AUTO 28009KT CAVOK 13/09 Q1023 NOSIG
05:50
V
14 °C 10 km+ - 280°   280° 9 kt METAR EDDS 210350Z AUTO 28009KT CAVOK 14/09 Q1023
05:20
V
13 °C 10 km+ - 280°   280° 7 kt METAR EDDS 210320Z AUTO 28007KT CAVOK 13/09 Q1023
04:50
V
14 °C 10 km+ - 290°   290° 10 kt METAR EDDS 210250Z AUTO 29010KT CAVOK 14/10 Q1023
04:20
V
15 °C 10 km+ - 270°   270° 17 kt METAR EDDS 210220Z AUTO 27017KT CAVOK 15/09 Q1022
03:50
V
15 °C 10 km+ - 290°   290° 9 kt METAR EDDS 210150Z AUTO 29009KT CAVOK 15/11 Q1022
03:20
V
15 °C 10 km+ - 260°   260° 8 kt METAR EDDS 210120Z AUTO 26008KT 230V300 CAVOK 15/11 Q1022
02:50
V
16 °C 10 km+ - 240°   240° 5 kt METAR EDDS 210050Z AUTO 24005KT 210V270 CAVOK 16/13 Q1022
02:20
V
17 °C 10 km+ - 240°   240° 7 kt METAR EDDS 210020Z AUTO 24007KT 210V270 9999 FEW028 17/13 Q1021
01:50
V
17 °C 10 km+ - 220°   220° 5 kt METAR EDDS 202350Z AUTO 22005KT 160V290 9999 FEW049 17/14 Q1021
01:20
V
18 °C 10 km+ - 220°   220° 4 kt METAR EDDS 202320Z AUTO 22004KT 150V270 9999 FEW026 18/15 Q1021
00:50
V
18 °C 10 km+ - 260°   260° 6 kt METAR EDDS 202250Z AUTO 26006KT 200V300 9999 FEW046 18/14 Q1021
00:20
V
19 °C 10 km+ - 280°   280° 10 kt METAR EDDS 202220Z AUTO 28010KT CAVOK 19/14 Q1021 RESHRA

20 mai 2022

Temps Code Temps Temp. Vue Des nuages Vent METAR/SPECI
23:50
V
19 °C 10 km+ - 280°   280° 12 kt METAR EDDS 202150Z AUTO 28012KT 9999 -SHRA FEW///TCU 19/15 Q1020 RESHRA
23:20
V
20 °C 10 km+ - 290°   290° 16 kt METAR EDDS 202120Z AUTO 29016KT 9999 SHRA VCTS FEW035 FEW///CB 20/16 Q1020
22:50
V
22 °C 10 km+ - 280°   280° 19 kt METAR EDDS 202050Z AUTO 28019KT 9999 VCTS VCSH FEW///CB 22/15 Q1019
22:20
V
23 °C 10 km+ - 300°   300° 20 kt METAR EDDS 202020Z AUTO 30020KT CAVOK 23/14 Q1018 RESHRA
21:50
V
26 °C 10 km+ - 260°   260° 8 kt METAR EDDS 201950Z AUTO 26008KT 180V290 9999 SHRA FEW///TCU 26/12 Q1017 TEMPO 24020G35KT 4000 TSRA
21:20
V
25 °C 10 km+ - 240°   240° 4 kt METAR EDDS 201920Z AUTO 24004KT 190V270 CAVOK 25/12 Q1017 TEMPO 24020G35KT 4000 TSRA
20:50
V
25 °C 10 km+ - 250°   250° 4 kt METAR EDDS 201850Z AUTO 25004KT 180V280 CAVOK 25/14 Q1016 NOSIG
20:20
V
25 °C 10 km+ - Var   Var 2 kt METAR EDDS 201820Z AUTO VRB02KT CAVOK 25/15 Q1016 NOSIG
19:50
V
25 °C 10 km+ - 160°   160° 4 kt METAR EDDS 201750Z AUTO 16004KT 120V220 CAVOK 25/15 Q1016 NOSIG
19:20
V
27 °C 10 km+ - Var   Var 2 kt METAR EDDS 201720Z AUTO VRB02KT CAVOK 27/15 Q1016 NOSIG
18:50
V
26 °C 10 km+ - 270°   270° 4 kt METAR EDDS 201650Z AUTO 27004KT 200V320 CAVOK 26/15 Q1016 NOSIG
18:20
V
26 °C 10 km+ - 310°   310° 11 kt METAR EDDS 201620Z AUTO 31011KT CAVOK 26/15 Q1016 NOSIG
17:50
V
27 °C 10 km+ - 310°   310° 20 31 kt METAR EDDS 201550Z AUTO 31020G31KT CAVOK 27/14 Q1016 RESHRA
17:20
V
29 °C 10 km+ - 320°   320° 16 kt METAR EDDS 201520Z AUTO 32016KT 9999 SHRA VCTS FEW///CB 29/14 Q1016 RETS TEMPO -SHRA
16:50
V
30 °C 10 km+ - 290°   290° 12 kt METAR EDDS 201450Z AUTO 29012KT CAVOK 30/11 Q1016 TEMPO 24015G25KT SHRA
16:20
V
31 °C 10 km+ - Var   Var 6 kt METAR EDDS 201420Z AUTO VRB06KT CAVOK 31/12 Q1016 TEMPO 24015G25KT
15:50
V
31 °C 10 km+ - 210°   210° 7 kt METAR EDDS 201350Z AUTO 21007KT 150V270 CAVOK 31/12 Q1016 TEMPO 24015G25KT
15:20
V
31 °C 10 km+ - Var   Var 6 kt METAR EDDS 201320Z AUTO VRB06KT CAVOK 31/11 Q1017 TEMPO 24015G25KT
14:50
V
31 °C 10 km+ - 220°   220° 8 kt METAR EDDS 201250Z AUTO 22008KT 170V270 CAVOK 31/11 Q1017 TEMPO 24015G25KT
14:20
V
30 °C 10 km+ - 240°   240° 10 kt METAR EDDS 201220Z AUTO 24010KT 170V270 CAVOK 30/12 Q1018 TEMPO 24015G25KT
13:50
V
30 °C 10 km+ - 230°   230° 8 kt METAR EDDS 201150Z AUTO 23008KT 160V320 CAVOK 30/12 Q1019 TEMPO 24015G25KT
13:20
V
30 °C 10 km+ - 240°   240° 11 kt METAR EDDS 201120Z AUTO 24011KT 170V290 CAVOK 30/12 Q1019 TEMPO 24015G25KT
12:50
V
29 °C 10 km+ - 230°   230° 10 kt METAR EDDS 201050Z AUTO 23010KT 160V300 CAVOK 29/12 Q1020 NOSIG
12:20
V
29 °C 10 km+ - Var   Var 9 kt METAR EDDS 201020Z AUTO VRB09KT CAVOK 29/13 Q1020 NOSIG
11:50
V
28 °C 10 km+ - 240°   240° 9 kt METAR EDDS 200950Z AUTO 24009KT 160V320 CAVOK 28/14 Q1021 NOSIG
11:20
V
28 °C 10 km+ - 230°   230° 6 kt METAR EDDS 200920Z AUTO 23006KT 130V280 CAVOK 28/15 Q1021 NOSIG
10:50
V
27 °C 10 km+ - 220°   220° 4 kt METAR EDDS 200850Z AUTO 22004KT 130V290 CAVOK 27/15 Q1021 BECMG 22008KT
10:20
V
26 °C 10 km+ - Var   Var 1 kt METAR EDDS 200820Z AUTO VRB01KT CAVOK 26/15 Q1022 BECMG 22008KT
09:50
V
25 °C 10 km+ - Var   Var 2 kt METAR EDDS 200750Z AUTO VRB02KT CAVOK 25/15 Q1022 BECMG 22008KT
09:20
V
24 °C 10 km+ - Var   Var 2 kt METAR EDDS 200720Z AUTO VRB02KT CAVOK 24/15 Q1022 NOSIG
08:50
V
23 °C 10 km+ - Var   Var 2 kt METAR EDDS 200650Z AUTO VRB02KT CAVOK 23/15 Q1022 NOSIG
08:20
V
22 °C 10 km+ - Var   Var 1 kt METAR EDDS 200620Z AUTO VRB01KT CAVOK 22/15 Q1022 NOSIG
07:50
V
20 °C 10 km+ - Var   Var 2 kt METAR EDDS 200550Z AUTO VRB02KT CAVOK 20/15 Q1022 NOSIG
07:20
V
18 °C 10 km+ - Var   Var 1 kt METAR EDDS 200520Z AUTO VRB01KT CAVOK 18/15 Q1022 NOSIG
06:50
V
16 °C 10 km+ - 150°   150° 1 kt METAR EDDS 200450Z AUTO 15001KT CAVOK 16/14 Q1022
Données plus anciennes

Télécharge notre application

Un accès facile à toute la météo aéronautique sur ton téléphone portable et ta tablette.
Avec de nombreuses fonctionnalités non disponibles sur le site Web, comme la prise en charge hors ligne et une liste personnelle d'aéroports.

Nous et des tiers suivons ton comportement sur Internet sur notre site Web à l'aide de cookies. Si tu continues, nous supposons que tu acceptes notre politique en matière de cookies. Apprendre plus